カタログに戻る

STARLINK-32363

運用中通信VLEO
NORAD 61678·PAYLOAD·🇺🇸 United States

打ち上げ Oct 26, 2024 から Cape Canaveral Space Force Station

Loading…

次のパス (今後24時間)

TLE

最新Source: CelesTrak SupGP

元期: Sep 14, 2026, 22:31 UTC

1 61678C 24193T   26257.93868056  .00092443  00000+0  27286-2 0  2579
2 61678  53.1573 287.3990 0001346  99.1910 341.0103 15.34374676    14

AllMySatでSTARLINK-32363をリアルタイム追跡

Download on the App Store